Location: Houston
(29.7630°N, 95.3630°W)
Time: 14:34:24
(UTC-06:00)

ISS - All Passes

Search period start: 27 February 2017 00:00
Search period end: 09 March 2017 00:00
Orbit: 399 x 408 km, 51.6° (Epoch: 28 February)

Date Brightness Start Highest point End Pass type
(mag) Time Alt. Az. Time Alt. Az. Time Alt. Az.
27 Feb - 06:44:51 10° SW 06:48:06 66° NW 06:51:23 10° NE daylight
27 Feb - 14:53:31 10° NW 14:56:48 88° SW 15:00:03 10° SE daylight
28 Feb - 05:52:26 10° SSW 05:55:36 48° SE 05:58:47 10° NE visible
28 Feb - 07:30:39 10° WNW 07:32:15 13° NW 07:33:51 10° N daylight
28 Feb - 14:01:08 10° NNW 14:04:15 38° NE 14:07:19 10° ESE daylight
28 Feb - 15:39:07 10° WSW 15:40:22 12° SW 15:41:37 10° SSW daylight
01 Mar - 05:00:39 10° S 05:03:10 21° SE 05:05:42 10° ENE visible
01 Mar - 06:36:48 10° W 06:39:30 23° NW 06:42:14 10° NNE daylight
01 Mar - 13:09:06 10° N 13:11:34 19° NE 13:14:01 10° E daylight
01 Mar - 14:45:12 10° WNW 14:47:59 26° SW 14:50:46 10° S daylight
02 Mar - 05:43:40 10° WSW 05:46:51 49° NW 05:50:04 10° NNE visible
02 Mar - 12:17:55 10° NNE 12:18:46 11° NNE 12:19:37 10° NE daylight
02 Mar - 13:52:16 10° NW 13:55:31 65° SW 13:58:44 10° SE daylight
03 Mar - 04:51:02 10° SW 04:54:17 66° SE 04:57:33 10° NE visible
03 Mar - 06:30:12 10° NW 06:31:02 11° NNW 06:31:52 10° NNW daylight
03 Mar - 12:59:44 10° NNW 13:02:56 50° NE 13:06:08 10° ESE daylight
04 Mar - 03:58:59 10° S 04:01:47 26° SE 04:04:36 10° ENE visible
04 Mar - 05:35:46 10° W 05:38:13 19° NW 05:40:41 10° N visible
04 Mar - 12:07:32 10° NNW 12:10:16 23° NE 12:12:59 10° E daylight
04 Mar - 13:44:05 10° WNW 13:46:36 20° SW 13:49:05 10° S daylight
05 Mar - 03:08:02 10° SSE 03:09:21 12° SE 03:10:40 10° E night (unlit)
05 Mar - 04:42:24 10° WSW 04:45:30 38° NW 04:48:36 10° NNE visible
05 Mar - 11:15:52 10° N 11:17:28 13° NE 11:19:04 10° ENE daylight
05 Mar - 12:50:56 10° NW 12:54:07 48° SW 12:57:16 10° SSE daylight
06 Mar - 03:49:36 10° SW 03:52:51 88° SE 03:56:08 10° NE visible
06 Mar - 11:58:15 10° NW 12:01:32 67° NE 12:04:46 10° SE daylight
07 Mar - 02:57:17 10° SSW 03:00:18 34° SE 03:03:19 10° ENE night (unlit)
07 Mar - 04:34:43 10° WNW 04:36:49 16° NW 04:38:57 10° N visible
07 Mar - 11:05:54 10° NNW 11:08:50 29° NE 11:11:45 10° ESE daylight
07 Mar - 12:42:59 10° W 12:45:05 16° SW 12:47:10 10° SSW daylight
08 Mar - 02:05:48 10° SSE 02:07:49 15° SE 02:09:49 10° E night (unlit)
08 Mar - 03:41:06 10° WSW 03:44:02 30° NW 03:46:58 10° NNE night (unlit)
08 Mar - 10:13:58 10° N 10:16:02 15° NE 10:18:05 10° ENE daylight
08 Mar - 11:49:32 10° WNW 11:52:35 36° SW 11:55:36 10° SSE daylight
